QPF
0.00 0.00 0.00 0.00 0.01 0.01 0.01 0.01 0.01 0.01 0.01 0.01 0.01 0.02 0.03 0.03 0.03 0.02 0.02 0.01 0.01 0.01 0.01 0.02 0.03 0.03 0.03 0.04 0.03 0.03 0.02 0.01 0.03 0.04 0.03 0.02 0.02 0.01 0.01 0.01 0.01 0.01 0.01
0.00 0.00 0.01 0.01 0.01 0.01 0.01 0.01 0.01 0.00 0.00 0.01 0.02 0.03 0.04 0.04 0.03 0.02 0.01 0.01 0.01 0.01 0.01 0.01 0.02 0.03 0.03 0.04 0.03 0.03 0.02 0.02 0.02 0.04 0.03 0.02 0.02 0.01 0.01 0.01 0.01 0.01 0.01
0.00 0.00 0.00 0.00 0.00 0.00 0.00 0.01 0.01 0.01 0.01 0.01 0.02 0.03 0.04 0.05 0.06 0.04 0.02 0.02 0.02 0.01 0.01 0.01 0.01 0.02 0.03 0.03 0.03 0.03 0.03 0.03 0.03 0.03 0.04 0.03 0.02 0.02 0.02 0.01 0.01 0.01 0.01
0.00 0.00 0.01 0.00 0.00 0.00 0.01 0.01 0.02 0.01 0.01 0.01 0.02 0.03 0.03 0.05 0.08 0.07 0.04 0.03 0.02 0.02 0.02 0.01 0.01 0.01 0.02 0.02 0.03 0.03 0.03 0.03 0.03 0.03 0.02 0.03 0.03 0.02 0.02 0.01 0.01 0.00 0.01
0.00 0.00 0.00 0.00 0.00 0.01 0.01 0.02 0.02 0.02 0.01 0.01 0.03 0.03 0.03 0.04 0.05 0.05 0.04 0.03 0.03 0.03 0.03 0.03 0.01 0.02 0.02 0.02 0.03 0.02 0.02 0.03 0.03 0.04 0.03 0.03 0.03 0.03 0.02 0.01 0.01 0.00 0.00
0.00 0.00 0.00 0.00 0.00 0.01 0.01 0.01 0.02 0.02 0.01 0.01 0.02 0.02 0.03 0.04 0.04 0.03 0.03 0.04 0.02 0.02 0.03 0.02 0.02 0.02 0.03 0.03 0.05 0.04 0.03 0.04 0.04 0.04 0.03 0.03 0.03 0.03 0.02 0.02 0.01 0.01 0.00
0.00 0.00 0.00 0.00 0.01 0.01 0.01 0.01 0.02 0.02 0.01 0.01 0.02 0.02 0.02 0.03 0.03 0.02 0.02 0.02 0.03 0.02 0.02 0.02 0.03 0.02 0.02 0.02 0.03 0.03 0.04 0.05 0.05 0.02 0.01 0.01 0.02 0.03 0.03 0.02 0.02 0.01 0.01
0.00 0.00 0.00 0.00 0.00 0.01 0.01 0.02 0.03 0.03 0.02 0.01 0.02 0.02 0.03 0.03 0.02 0.02 0.01 0.01 0.02 0.02 0.02 0.02 0.03 0.03 0.02 0.01 0.01 0.03 0.02 0.02 0.03 0.02 0.01 0.02 0.02 0.02 0.02 0.02 0.01 0.01 0.01
0.00 0.00 0.00 0.00 0.00 0.01 0.02 0.03 0.04 0.03 0.02 0.01 0.01 0.02 0.02 0.02 0.01 0.01 0.01 0.01 0.01 0.02 0.01 0.02 0.03 0.03 0.03 0.02 0.02 0.03 0.03 0.02 0.01 0.02 0.02 0.02 0.02 0.02 0.02 0.01 0.01 0.02 0.01
0.00 0.00 0.00 0.00 0.01 0.01 0.02 0.02 0.01 0.01 0.01 0.01 0.01 0.01 0.01 0.01 0.01 0.01 0.01 0.02 0.02 0.02 0.01 0.02 0.02 0.04 0.04 0.03 0.02 0.03 0.02 0.01 0.01 0.02 0.03 0.04 0.03 0.03 0.02 0.02 0.03 0.02 0.02
0.00 0.00 0.00 0.01 0.01 0.01 0.02 0.02 0.02 0.01 0.01 0.01 0.01 0.01 0.01 0.01 0.03 0.02 0.01 0.03 0.04 0.02 0.01 0.01 0.02 0.02 0.03 0.03 0.02 0.02 0.02 0.02 0.01 0.02 0.03 0.05 0.06 0.05 0.04 0.04 0.04 0.04 0.03
0.00 0.00 0.00 0.01 0.01 0.01 0.01 0.02 0.02 0.02 0.02 0.01 0.01 0.01 0.02 0.01 0.02 0.03 0.02 0.03 0.05 0.04 0.02 0.01 0.02 0.02 0.02 0.02 0.02 0.02 0.02 0.02 0.02 0.02 0.02 0.04 0.06 0.04 0.04 0.03 0.02 0.03 0.03
0.00 0.00 0.00 0.01 0.01 0.01 0.01 0.01 0.02 0.02 0.02 0.02 0.01 0.01 0.02 0.02 0.02 0.03 0.02 0.03 0.04 0.03 0.01 0.02 0.02 0.02 0.02 0.02 0.03 0.03 0.03 0.03 0.03 0.02 0.02 0.02 0.04 0.05 0.04 0.02 0.01 0.02 0.02
0.00 0.00 0.00 0.00 0.00 0.01 0.01 0.01 0.03 0.03 0.03 0.03 0.02 0.01 0.02 0.02 0.02 0.02 0.02 0.02 0.02 0.01 0.00 0.01 0.01 0.01 0.01 0.01 0.02 0.03 0.03 0.03 0.03 0.03 0.03 0.03 0.02 0.04 0.02 0.01 0.01 0.01 0.01
0.00 0.00 0.00 0.00 0.00 0.00 0.01 0.01 0.03 0.04 0.05 0.04 0.03 0.02 0.02 0.02 0.02 0.02 0.02 0.02 0.02 0.02 0.01 0.01 0.01 0.01 0.01 0.01 0.02 0.02 0.02 0.03 0.03 0.02 0.03 0.02 0.02 0.02 0.01 0.01 0.01 0.02 0.03
0.00 0.00 0.00 0.00 0.00 0.00 0.01 0.01 0.01 0.03 0.04 0.04 0.04 0.03 0.02 0.02 0.02 0.02 0.03 0.03 0.03 0.02 0.02 0.01 0.02 0.02 0.04 0.04 0.03 0.02 0.03 0.03 0.02 0.02 0.02 0.02 0.02 0.02 0.02 0.01 0.02 0.03 0.04
0.00 0.01 0.01 0.01 0.01 0.01 0.00 0.01 0.01 0.02 0.03 0.04 0.05 0.04 0.02 0.01 0.01 0.02 0.03 0.03 0.03 0.02 0.02 0.02 0.01 0.01 0.03 0.05 0.03 0.03 0.04 0.04 0.03 0.02 0.02 0.02 0.01 0.02 0.02 0.02 0.02 0.01 0.01
0.01 0.01 0.01 0.01 0.01 0.01 0.00 0.00 0.01 0.02 0.04 0.04 0.04 0.02 0.01 0.01 0.01 0.01 0.03 0.04 0.03 0.02 0.02 0.01 0.01 0.02 0.03 0.04 0.05 0.03 0.04 0.05 0.03 0.02 0.02 0.01 0.01 0.02 0.02 0.02 0.02 0.01 0.01
0.01 0.01 0.01 0.01 0.01 0.01 0.00 0.01 0.01 0.03 0.05 0.05 0.03 0.03 0.03 0.02 0.03 0.02 0.03 0.04 0.03 0.03 0.02 0.01 0.01 0.01 0.02 0.03 0.04 0.03 0.02 0.03 0.03 0.03 0.02 0.03 0.02 0.02 0.02 0.02 0.02 0.02 0.01
0.02 0.02 0.01 0.01 0.01 0.01 0.01 0.01 0.02 0.03 0.05 0.06 0.04 0.05 0.05 0.05 0.04 0.03 0.03 0.04 0.03 0.03 0.02 0.02 0.02 0.01 0.02 0.02 0.02 0.02 0.02 0.02 0.03 0.05 0.03 0.03 0.03 0.03 0.02 0.02 0.02 0.02 0.02
0.02 0.02 0.01 0.01 0.01 0.01 0.01 0.01 0.02 0.03 0.04 0.04 0.03 0.04 0.05 0.06 0.05 0.05 0.04 0.03 0.03 0.03 0.02 0.02 0.02 0.01 0.01 0.01 0.01 0.02 0.02 0.02 0.02 0.04 0.03 0.03 0.03 0.03 0.03 0.03 0.02 0.02 0.02
0.01 0.02 0.01 0.01 0.01 0.01 0.01 0.02 0.02 0.02 0.02 0.03 0.03 0.03 0.03 0.03 0.03 0.04 0.04 0.03 0.02 0.02 0.02 0.02 0.01 0.01 0.00 0.00 0.01 0.01 0.02 0.01 0.01 0.02 0.02 0.02 0.02 0.02 0.02 0.02 0.02 0.03 0.04
0.01 0.02 0.01 0.01 0.01 0.02 0.02 0.02 0.02 0.02 0.02 0.03 0.03 0.03 0.03 0.02 0.01 0.02 0.03 0.03 0.03 0.02 0.02 0.02 0.02 0.01 0.00 0.00 0.00 0.00 0.01 0.01 0.01 0.01 0.01 0.01 0.01 0.01 0.01 0.02 0.02 0.03 0.04
0.01 0.02 0.02 0.01 0.02 0.02 0.01 0.01 0.01 0.01 0.01 0.03 0.04 0.03 0.03 0.02 0.01 0.01 0.01 0.02 0.02 0.02 0.01 0.01 0.01 0.01 0.00 0.00 0.00 0.00 0.00 0.01 0.01 0.01 0.01 0.01 0.01 0.01 0.02 0.02 0.02 0.02 0.02
0.00 0.01 0.02 0.01 0.01 0.01 0.01 0.01 0.01 0.00 0.01 0.02 0.02 0.03 0.03 0.03 0.02 0.01 0.01 0.01 0.01 0.02 0.02 0.01 0.01 0.01 0.01 0.01 0.01 0.00 0.00 0.00 0.00 0.00 0.01 0.01 0.02 0.01 0.01 0.02 0.02 0.02 0.02
0.00 0.00 0.01 0.01 0.01 0.01 0.01 0.00 0.00 0.00 0.00 0.01 0.02 0.02 0.03 0.03 0.03 0.02 0.01 0.01 0.01 0.01 0.02 0.01 0.01 0.01 0.01 0.01 0.01 0.01 0.01 0.01 0.01 0.01 0.01 0.01 0.01 0.02 0.02 0.02 0.02 0.03 0.03
MSLP
1012.36 1012.76 1013.08 1013.33 1013.53 1013.72 1013.92 1014.16 1014.45 1014.77 1015.08 1015.34 1015.54 1015.65 1015.69 1015.70 1015.72 1015.82 1016.04 1016.40 1016.90 1017.50 1018.16 1018.82 1019.43 1019.95 1020.38 1020.74 1021.06 1021.39 1021.75 1022.18 1022.67 1023.21 1023.76 1024.28 1024.73 1025.10 1025.35 1025.50 1025.58 1025.61 1025.61
1011.99 1012.50 1012.92 1013.24 1013.48 1013.67 1013.86 1014.09 1014.35 1014.64 1014.94 1015.20 1015.40 1015.52 1015.57 1015.59 1015.63 1015.74 1015.98 1016.36 1016.89 1017.53 1018.24 1018.94 1019.59 1020.14 1020.58 1020.92 1021.20 1021.48 1021.78 1022.15 1022.59 1023.11 1023.66 1024.22 1024.73 1025.18 1025.53 1025.79 1025.97 1026.09 1026.16
1011.51 1012.14 1012.67 1013.06 1013.36 1013.58 1013.77 1013.99 1014.24 1014.52 1014.81 1015.08 1015.28 1015.42 1015.49 1015.52 1015.56 1015.68 1015.92 1016.31 1016.85 1017.51 1018.25 1018.99 1019.66 1020.24 1020.69 1021.02 1021.27 1021.49 1021.72 1022.02 1022.40 1022.87 1023.41 1023.99 1024.55 1025.08 1025.53 1025.91 1026.20 1026.43 1026.60
1010.91 1011.65 1012.28 1012.77 1013.13 1013.39 1013.62 1013.84 1014.09 1014.38 1014.68 1014.96 1015.19 1015.35 1015.44 1015.48 1015.53 1015.64 1015.87 1016.24 1016.78 1017.44 1018.18 1018.94 1019.65 1020.25 1020.71 1021.05 1021.28 1021.46 1021.64 1021.87 1022.19 1022.60 1023.11 1023.68 1024.27 1024.86 1025.40 1025.88 1026.29 1026.62 1026.89
1010.22 1011.06 1011.79 1012.37 1012.80 1013.13 1013.39 1013.64 1013.92 1014.22 1014.54 1014.85 1015.11 1015.29 1015.40 1015.46 1015.51 1015.61 1015.81 1016.16 1016.66 1017.30 1018.04 1018.81 1019.54 1020.17 1020.67 1021.03 1021.27 1021.43 1021.58 1021.76 1022.02 1022.38 1022.84 1023.39 1023.98 1024.60 1025.19 1025.75 1026.24 1026.67 1027.03
1009.51 1010.43 1011.24 1011.91 1012.42 1012.81 1013.13 1013.42 1013.72 1014.05 1014.40 1014.74 1015.02 1015.24 1015.37 1015.44 1015.49 1015.57 1015.74 1016.04 1016.50 1017.11 1017.83 1018.59 1019.34 1020.01 1020.56 1020.96 1021.24 1021.43 1021.58 1021.74 1021.96 1022.27 1022.67 1023.17 1023.73 1024.33 1024.94 1025.53 1026.07 1026.56 1026.98
1008.87 1009.84 1010.73 1011.47 1012.05 1012.51 1012.87 1013.20 1013.54 1013.89 1014.26 1014.62 1014.94 1015.18 1015.33 1015.41 1015.46 1015.52 1015.65 1015.91 1016.32 1016.88 1017.57 1018.33 1019.09 1019.80 1020.40 1020.88 1021.22 1021.47 1021.64 1021.81 1022.01 1022.27 1022.61 1023.05 1023.55 1024.10 1024.67 1025.24 1025.79 1026.30 1026.76
1008.37 1009.38 1010.32 1011.12 1011.76 1012.26 1012.67 1013.03 1013.39 1013.76 1014.14 1014.52 1014.85 1015.11 1015.28 1015.37 1015.41 1015.46 1015.56 1015.78 1016.14 1016.65 1017.30 1018.04 1018.81 1019.56 1020.22 1020.77 1021.20 1021.52 1021.75 1021.95 1022.14 1022.37 1022.66 1023.01 1023.43 1023.90 1024.40 1024.91 1025.43 1025.92 1026.39
1008.08 1009.10 1010.07 1010.90 1011.58 1012.12 1012.55 1012.93 1013.29 1013.66 1014.04 1014.42 1014.76 1015.03 1015.22 1015.32 1015.38 1015.42 1015.50 1015.68 1016.00 1016.47 1017.07 1017.78 1018.55 1019.32 1020.03 1020.65 1021.16 1021.56 1021.87 1022.11 1022.32 1022.53 1022.77 1023.05 1023.37 1023.74 1024.14 1024.58 1025.03 1025.48 1025.94
1007.97 1009.00 1009.97 1010.82 1011.52 1012.07 1012.51 1012.89 1013.24 1013.60 1013.97 1014.34 1014.68 1014.96 1015.16 1015.29 1015.36 1015.41 1015.50 1015.66 1015.94 1016.37 1016.93 1017.60 1018.35 1019.11 1019.85 1020.52 1021.10 1021.57 1021.94 1022.24 1022.47 1022.68 1022.89 1023.11 1023.35 1023.62 1023.93 1024.27 1024.65 1025.06 1025.48
1007.99 1009.01 1009.98 1010.82 1011.52 1012.07 1012.51 1012.88 1013.23 1013.57 1013.92 1014.28 1014.62 1014.91 1015.14 1015.30 1015.40 1015.49 1015.59 1015.75 1016.02 1016.40 1016.91 1017.54 1018.24 1018.97 1019.70 1020.39 1021.00 1021.52 1021.95 1022.30 1022.57 1022.80 1022.99 1023.17 1023.36 1023.56 1023.79 1024.05 1024.36 1024.72 1025.11
1008.03 1009.04 1009.98 1010.82 1011.50 1012.06 1012.50 1012.87 1013.21 1013.55 1013.90 1014.25 1014.59 1014.90 1015.16 1015.37 1015.52 1015.65 1015.79 1015.97 1016.23 1016.59 1017.05 1017.61 1018.24 1018.92 1019.61 1020.27 1020.88 1021.43 1021.89 1022.28 1022.60 1022.85 1023.06 1023.24 1023.40 1023.56 1023.74 1023.96 1024.22 1024.54 1024.90
1007.98 1008.96 1009.89 1010.70 1011.39 1011.95 1012.41 1012.80 1013.16 1013.51 1013.88 1014.24 1014.61 1014.95 1015.26 1015.51 1015.73 1015.92 1016.11 1016.33 1016.59 1016.92 1017.34 1017.83 1018.38 1018.97 1019.58 1020.19 1020.77 1021.30 1021.78 1022.20 1022.56 1022.86 1023.11 1023.31 1023.49 1023.65 1023.82 1024.01 1024.25 1024.54 1024.89
1007.76 1008.71 1009.61 1010.42 1011.12 1011.70 1012.20 1012.64 1013.05 1013.45 1013.85 1014.26 1014.67 1015.05 1015.41 1015.73 1016.02 1016.27 1016.52 1016.77 1017.05 1017.38 1017.74 1018.17 1018.63 1019.13 1019.64 1020.17 1020.69 1021.19 1021.67 1022.11 1022.51 1022.86 1023.16 1023.42 1023.64 1023.84 1024.02 1024.22 1024.45 1024.73 1025.05
1007.32 1008.25 1009.13 1009.94 1010.66 1011.30 1011.86 1012.38 1012.87 1013.35 1013.82 1014.29 1014.75 1015.19 1015.61 1015.99 1016.34 1016.66 1016.96 1017.26 1017.57 1017.88 1018.22 1018.58 1018.96 1019.37 1019.79 1020.22 1020.67 1021.13 1021.59 1022.04 1022.48 1022.88 1023.25 1023.58 1023.86 1024.12 1024.34 1024.57 1024.80 1025.07 1025.37
1006.67 1007.58 1008.45 1009.27 1010.04 1010.74 1011.40 1012.02 1012.62 1013.20 1013.77 1014.31 1014.84 1015.34 1015.81 1016.25 1016.65 1017.03 1017.38 1017.72 1018.05 1018.37 1018.69 1019.01 1019.33 1019.66 1020.00 1020.36 1020.74 1021.16 1021.59 1022.05 1022.51 1022.97 1023.40 1023.80 1024.15 1024.46 1024.74 1024.99 1025.23 1025.48 1025.75
1005.89 1006.78 1007.64 1008.49 1009.30 1010.09 1010.85 1011.60 1012.31 1013.01 1013.68 1014.31 1014.91 1015.46 1015.97 1016.45 1016.89 1017.30 1017.70 1018.07 1018.43 1018.77 1019.09 1019.40 1019.69 1019.97 1020.26 1020.56 1020.90 1021.27 1021.69 1022.15 1022.63 1023.12 1023.61 1024.06 1024.48 1024.84 1025.16 1025.43 1025.68 1025.91 1026.14
1005.06 1005.93 1006.80 1007.66 1008.53 1009.40 1010.27 1011.12 1011.96 1012.77 1013.54 1014.26 1014.92 1015.51 1016.06 1016.55 1017.01 1017.45 1017.86 1018.26 1018.65 1019.02 1019.36 1019.68 1019.98 1020.25 1020.53 1020.81 1021.12 1021.48 1021.88 1022.33 1022.82 1023.34 1023.85 1024.35 1024.80 1025.20 1025.54 1025.82 1026.06 1026.27 1026.46
1004.27 1005.13 1006.00 1006.88 1007.79 1008.72 1009.68 1010.64 1011.58 1012.49 1013.35 1014.13 1014.84 1015.47 1016.03 1016.53 1016.99 1017.43 1017.86 1018.28 1018.70 1019.10 1019.48 1019.84 1020.17 1020.48 1020.77 1021.07 1021.38 1021.73 1022.13 1022.58 1023.07 1023.58 1024.10 1024.61 1025.07 1025.48 1025.82 1026.10 1026.32 1026.51 1026.66
1003.60 1004.45 1005.31 1006.20 1007.13 1008.11 1009.12 1010.15 1011.18 1012.16 1013.09 1013.93 1014.68 1015.33 1015.89 1016.39 1016.84 1017.28 1017.71 1018.14 1018.58 1019.02 1019.46 1019.87 1020.26 1020.63 1020.97 1021.30 1021.65 1022.01 1022.41 1022.84 1023.32 1023.81 1024.32 1024.80 1025.25 1025.64 1025.97 1026.24 1026.44 1026.60 1026.73
1003.08 1003.91 1004.76 1005.64 1006.57 1007.55 1008.60 1009.67 1010.75 1011.79 1012.77 1013.65 1014.43 1015.10 1015.67 1016.16 1016.61 1017.03 1017.46 1017.90 1018.36 1018.84 1019.33 1019.81 1020.27 1020.70 1021.11 1021.50 1021.88 1022.26 1022.66 1023.08 1023.53 1023.99 1024.45 1024.89 1025.30 1025.67 1025.97 1026.22 1026.40 1026.54 1026.65
1002.70 1003.52 1004.34 1005.19 1006.09 1007.07 1008.11 1009.20 1010.30 1011.38 1012.39 1013.31 1014.12 1014.81 1015.39 1015.88 1016.33 1016.74 1017.17 1017.62 1018.10 1018.61 1019.15 1019.69 1020.22 1020.72 1021.20 1021.64 1022.06 1022.46 1022.86 1023.26 1023.66 1024.07 1024.47 1024.86 1025.22 1025.55 1025.82 1026.04 1026.22 1026.35 1026.45
1002.42 1003.22 1004.01 1004.82 1005.69 1006.63 1007.65 1008.73 1009.83 1010.93 1011.97 1012.92 1013.76 1014.48 1015.09 1015.60 1016.05 1016.47 1016.90 1017.35 1017.85 1018.38 1018.95 1019.54 1020.13 1020.69 1021.22 1021.72 1022.17 1022.58 1022.97 1023.33 1023.69 1024.03 1024.37 1024.70 1025.00 1025.28 1025.52 1025.73 1025.90 1026.03 1026.14
1002.21 1002.98 1003.74 1004.51 1005.33 1006.22 1007.20 1008.25 1009.35 1010.45 1011.51 1012.50 1013.38 1014.14 1014.78 1015.32 1015.80 1016.23 1016.67 1017.12 1017.62 1018.18 1018.77 1019.38 1020.01 1020.62 1021.19 1021.71 1022.18 1022.60 1022.96 1023.29 1023.59 1023.87 1024.14 1024.40 1024.65 1024.88 1025.09 1025.29 1025.46 1025.60 1025.72
1001.98 1002.74 1003.47 1004.19 1004.97 1005.82 1006.75 1007.77 1008.85 1009.95 1011.03 1012.04 1012.96 1013.77 1014.46 1015.04 1015.55 1016.01 1016.45 1016.92 1017.42 1017.98 1018.57 1019.21 1019.85 1020.47 1021.07 1021.60 1022.08 1022.48 1022.83 1023.11 1023.35 1023.57 1023.77 1023.96 1024.15 1024.34 1024.53 1024.72 1024.89 1025.05 1025.20
1001.70 1002.45 1003.16 1003.85 1004.59 1005.40 1006.29 1007.27 1008.33 1009.42 1010.50 1011.54 1012.50 1013.35 1014.09 1014.72 1015.26 1015.74 1016.21 1016.68 1017.19 1017.74 1018.33 1018.96 1019.60 1020.23 1020.83 1021.37 1021.83 1022.22 1022.53 1022.77 1022.96 1023.11 1023.25 1023.38 1023.52 1023.68 1023.84 1024.02 1024.20 1024.38 1024.55
Thickness
5736 5734 5732 5730 5729 5727 5725 5724 5721 5719 5716 5713 5711 5709 5707 5707 5707 5706 5705 5704 5704 5703 5703 5703 5702 5700 5699 5698 5698 5697 5696 5695 5696 5694 5692 5692 5692 5691 5689 5689 5688 5688 5687
5731 5729 5727 5725 5724 5722 5720 5720 5717 5715 5713 5710 5708 5706 5704 5703 5702 5700 5699 5699 5699 5698 5698 5698 5697 5695 5694 5693 5693 5692 5691 5691 5692 5691 5688 5686 5685 5685 5685 5684 5683 5683 5682
5727 5725 5723 5721 5720 5718 5716 5715 5713 5711 5709 5707 5704 5702 5699 5698 5697 5696 5695 5694 5694 5694 5693 5693 5693 5691 5691 5689 5688 5688 5686 5685 5687 5687 5685 5682 5680 5679 5680 5679 5679 5677 5677
5725 5722 5719 5718 5716 5714 5713 5712 5710 5708 5706 5703 5701 5698 5695 5693 5693 5693 5692 5690 5689 5689 5688 5688 5688 5688 5687 5685 5685 5685 5684 5682 5681 5682 5682 5684 5681 5677 5674 5674 5675 5673 5672
5722 5719 5716 5715 5713 5711 5709 5708 5706 5704 5702 5700 5697 5695 5693 5692 5690 5689 5688 5687 5686 5685 5684 5684 5684 5683 5682 5682 5680 5680 5680 5679 5678 5677 5677 5677 5676 5678 5674 5669 5669 5669 5669
5719 5716 5714 5712 5709 5707 5704 5703 5701 5699 5697 5696 5694 5692 5690 5688 5685 5684 5683 5683 5683 5681 5680 5680 5680 5679 5678 5678 5676 5676 5675 5675 5674 5674 5674 5673 5672 5672 5670 5668 5666 5664 5664
5716 5713 5709 5706 5704 5701 5700 5699 5697 5695 5694 5692 5691 5689 5687 5685 5683 5681 5680 5679 5679 5677 5677 5676 5675 5675 5674 5673 5672 5672 5671 5671 5670 5670 5671 5671 5670 5670 5668 5665 5663 5661 5660
5712 5709 5706 5702 5699 5697 5696 5695 5693 5690 5689 5688 5687 5685 5683 5681 5680 5678 5677 5676 5675 5674 5673 5672 5671 5670 5669 5668 5668 5668 5667 5667 5666 5666 5666 5666 5666 5666 5665 5662 5659 5657 5656
5707 5705 5702 5699 5696 5694 5692 5690 5688 5686 5684 5683 5681 5680 5678 5677 5675 5674 5673 5672 5671 5670 5669 5668 5667 5666 5665 5664 5664 5663 5663 5662 5662 5662 5662 5661 5661 5661 5660 5659 5657 5653 5651
5704 5701 5698 5695 5693 5690 5687 5685 5683 5682 5679 5678 5676 5674 5672 5672 5670 5670 5668 5668 5667 5665 5664 5664 5663 5662 5661 5660 5659 5659 5658 5658 5657 5656 5656 5656 5656 5655 5654 5653 5652 5651 5649
5700 5697 5694 5691 5688 5685 5682 5680 5679 5676 5674 5673 5671 5669 5667 5666 5665 5664 5663 5662 5661 5660 5660 5659 5659 5657 5657 5656 5654 5654 5654 5654 5654 5653 5652 5651 5650 5649 5648 5647 5646 5645 5644
5697 5693 5690 5686 5683 5680 5677 5676 5674 5672 5669 5667 5666 5664 5662 5660 5659 5658 5657 5657 5656 5655 5655 5655 5654 5653 5652 5651 5651 5650 5649 5650 5649 5649 5648 5647 5645 5644 5643 5641 5641 5640 5638
5691 5688 5684 5681 5677 5675 5673 5671 5669 5666 5664 5662 5660 5659 5657 5655 5653 5652 5652 5651 5651 5651 5650 5650 5649 5648 5647 5647 5646 5646 5646 5646 5645 5645 5644 5643 5641 5639 5638 5637 5636 5634 5633
5685 5682 5678 5676 5672 5670 5667 5666 5663 5661 5659 5657 5655 5653 5651 5649 5648 5647 5646 5645 5645 5645 5645 5645 5644 5644 5643 5642 5642 5642 5641 5641 5641 5640 5639 5638 5636 5635 5634 5632 5631 5629 5627
5679 5676 5673 5671 5668 5665 5663 5661 5658 5656 5654 5652 5649 5648 5646 5644 5642 5641 5640 5639 5639 5640 5640 5639 5639 5638 5638 5637 5637 5636 5636 5636 5636 5635 5634 5633 5631 5629 5628 5627 5626 5624 5622
5674 5672 5669 5666 5663 5661 5658 5656 5653 5651 5649 5646 5644 5642 5640 5638 5636 5635 5635 5634 5633 5633 5633 5633 5633 5632 5632 5630 5628 5629 5631 5631 5630 5630 5629 5628 5625 5623 5621 5620 5618 5617 5617
5669 5667 5665 5662 5660 5658 5655 5651 5649 5646 5644 5641 5639 5637 5636 5633 5632 5630 5629 5628 5628 5627 5627 5627 5626 5626 5626 5623 5622 5621 5624 5626 5626 5626 5625 5623 5622 5618 5617 5615 5612 5611 5609
5664 5662 5661 5658 5656 5654 5650 5647 5644 5642 5638 5636 5633 5632 5630 5628 5626 5625 5624 5623 5623 5622 5621 5621 5621 5620 5619 5617 5616 5616 5618 5620 5621 5620 5619 5618 5617 5614 5612 5611 5609 5608 5606
5661 5659 5657 5654 5651 5648 5645 5642 5639 5637 5634 5631 5628 5628 5626 5624 5622 5620 5619 5618 5618 5617 5616 5615 5615 5614 5614 5611 5610 5609 5612 5614 5614 5614 5613 5612 5611 5608 5605 5605 5605 5603 5602
5655 5653 5651 5649 5645 5643 5640 5637 5635 5633 5630 5626 5624 5623 5622 5619 5617 5616 5615 5613 5612 5611 5610 5610 5610 5610 5609 5606 5604 5603 5607 5608 5608 5607 5606 5603 5602 5600 5598 5599 5599 5598 5598
5649 5647 5645 5642 5639 5637 5635 5632 5631 5629 5626 5623 5620 5618 5617 5615 5613 5611 5609 5608 5607 5606 5605 5605 5604 5604 5603 5601 5598 5597 5599 5600 5600 5600 5599 5597 5594 5593 5591 5592 5593 5593 5591
5642 5640 5638 5636 5633 5631 5629 5627 5625 5623 5621 5617 5614 5613 5611 5609 5607 5605 5603 5602 5601 5600 5599 5599 5598 5598 5597 5594 5592 5590 5590 5590 5591 5592 5591 5590 5587 5586 5585 5584 5585 5583 5582
5635 5633 5631 5630 5628 5625 5623 5621 5619 5617 5614 5611 5609 5607 5605 5603 5601 5599 5597 5596 5595 5595 5594 5593 5592 5592 5591 5589 5586 5584 5582 5581 5582 5583 5582 5581 5579 5578 5578 5577 5576 5575 5575
5628 5627 5625 5623 5622 5619 5617 5615 5613 5611 5609 5606 5604 5601 5600 5598 5596 5594 5593 5591 5590 5590 5588 5587 5586 5585 5585 5584 5582 5579 5577 5575 5574 5575 5574 5572 5571 5571 5571 5570 5570 5569 5569
5622 5620 5619 5617 5616 5614 5611 5608 5606 5605 5604 5602 5599 5597 5594 5592 5590 5588 5586 5585 5583 5582 5581 5580 5579 5578 5577 5575 5572 5571 5571 5569 5568 5567 5567 5567 5567 5566 5566 5566 5565 5564 5562
5615 5613 5612 5610 5609 5608 5605 5603 5600 5598 5598 5596 5594 5592 5589 5586 5584 5583 5581 5577 5575 5574 5572 5571 5570 5571 5568 5566 5564 5562 5561 5560 5558 5559 5561 5560 5560 5559 5559 5559 5558 5557 5556